| time (UTC) | temp C | wind direction | speed KPH | gust KPH | rain 1hr cm | rain 24hr cm | rain mn cm | humidity % | barometer mb |
| 20260503013609 | 13 | 112 | 0.0 | 0.0 | 0.00 | 0.00 | 0.00 | 19 | 983.5 |
| 20260503012609 | 13 | 315 | 0.0 | 0.0 | 0.00 | 0.00 | 0.00 | 19 | 983.5 |
| 20260503011614 | 13 | 360 | 0.0 | 0.0 | 0.00 | 0.00 | 0.00 | 19 | 983.8 |
| 20260503010614 | 13 | 135 | 0.0 | 0.0 | 0.00 | 0.00 | 0.00 | 19 | 983.8 |
| 20260503005614 | 13 | 315 | 0.0 | 0.0 | 0.00 | 0.00 | 0.00 | 19 | 983.9 |
| 20260503004614 | 12 | 157 | 0.0 | 0.0 | 0.00 | 0.00 | 0.00 | 20 | 983.9 |
| 20260503003614 | 12 | 135 | 0.0 | 0.0 | 0.00 | 0.00 | 0.00 | 20 | 984.0 |
| 20260503002614 | 13 | 315 | 0.0 | 0.0 | 0.00 | 0.00 | 0.00 | 19 | 984.0 |
| 20260503001613 | 13 | 247 | 0.0 | 0.0 | 0.00 | 0.00 | 0.00 | 19 | 984.2 |
| 20260503000613 | 13 | 247 | 0.0 | 0.0 | 0.00 | 0.00 | 0.00 | 19 | 984.2 |
| 20260502235613 | 13 | 225 | 0.0 | 0.0 | 0.00 | 0.00 | 0.00 | 19 | 984.2 |
| 20260502234613 | 13 | 180 | 0.0 | 1.6 | 0.00 | 0.00 | 0.00 | 19 | 984.2 |
| 20260502233613 | 13 | 225 | 0.0 | 0.0 | 0.00 | 0.00 | 0.00 | 19 | 984.4 |
| 20260502232613 | 13 | 202 | 0.0 | 0.0 | 0.00 | 0.00 | 0.00 | 19 | 984.4 |
| 20260502231613 | 13 | 180 | 0.0 | 0.0 | 0.00 | 0.00 | 0.00 | 19 | 984.7 |
| 20260502230613 | 13 | 247 | 0.0 | 0.0 | 0.00 | 0.00 | 0.00 | 19 | 984.7 |
| 20260502225613 | 14 | 270 | 0.0 | 0.0 | 0.00 | 0.00 | 0.00 | 19 | 984.6 |
| 20260502224613 | 15 | 247 | 1.6 | 6.4 | 0.00 | 0.00 | 0.00 | 19 | 984.6 |
| 20260502223612 | 14 | 202 | 0.0 | 0.0 | 0.00 | 0.00 | 0.00 | 19 | 984.7 |
| 20260502222613 | 14 | 247 | 0.0 | 4.8 | 0.00 | 0.00 | 0.00 | 19 | 984.7 |
| 20260502221612 | 15 | 202 | 1.6 | 3.2 | 0.00 | 0.00 | 0.00 | 19 | 984.9 |
| 20260502220612 | 15 | 180 | 1.6 | 3.2 | 0.00 | 0.00 | 0.00 | 12 | 984.9 |
| 20260502215612 | 14 | 180 | 0.0 | 1.6 | 0.00 | 0.00 | 0.00 | 13 | 985.2 |
| 20260502214612 | 12 | 180 | 0.0 | 0.0 | 0.00 | 0.00 | 0.00 | 13 | 985.2 |
| 20260502213612 | 12 | 247 | 0.0 | 0.0 | 0.00 | 0.00 | 0.00 | 13 | 985.1 |
| 20260502212612 | 12 | 270 | 0.0 | 0.0 | 0.00 | 0.00 | 0.00 | 13 | 985.1 |
| 20260502211612 | 12 | 292 | 0.0 | 0.0 | 0.00 | 0.00 | 0.00 | 5 | 985.0 |
| 20260502210612 | 12 | 270 | 0.0 | 0.0 | 0.00 | 0.00 | 0.00 | 5 | 985.0 |
| 20260502205612 | 12 | 247 | 0.0 | 0.0 | 0.00 | 0.00 | 0.00 | 5 | 985.1 |
| 20260502204612 | 13 | 270 | 0.0 | 0.0 | 0.00 | 0.00 | 0.00 | 5 | 985.1 |
| 20260502203613 | 13 | 225 | 0.0 | 0.0 | 0.00 | 0.00 | 0.00 | 5 | 985.3 |
| 20260502202612 | 13 | 180 | 0.0 | 0.0 | 0.00 | 0.00 | 0.00 | 5 | 985.3 |
| 20260502201617 | 14 | 180 | 0.0 | 0.0 | 0.00 | 0.00 | 0.00 | 5 | 985.2 |
| 20260502200612 | 14 | 247 | 0.0 | 0.0 | 0.00 | 0.00 | 0.00 | 5 | 985.2 |
| 20260502195611 | 15 | 202 | 0.0 | 0.0 | 0.00 | 0.00 | 0.00 | 5 | 985.0 |
| 20260502194611 | 15 | 247 | 0.0 | 0.0 | 0.00 | 0.00 | 0.00 | 5 | 985.0 |
| 20260502193611 | 16 | 225 | 0.0 | 0.0 | 0.00 | 0.00 | 0.00 | 5 | 984.8 |
| 20260502191614 | 17 | 225 | 0.0 | 0.0 | 0.00 | 0.00 | 0.00 | 5 | 984.8 |
| 20260502190611 | 18 | 202 | 0.0 | 0.0 | 0.00 | 0.00 | 0.00 | 5 | 984.8 |
| 20260502185611 | 18 | 157 | 0.0 | 0.0 | 0.00 | 0.00 | 0.00 | 5 | 984.8 |
| 20260502184610 | 20 | 157 | 0.0 | 0.0 | 0.00 | 0.00 | 0.00 | 5 | 984.8 |
| 20260502183610 | 21 | 180 | 0.0 | 0.0 | 0.00 | 0.00 | 0.00 | 5 | 985.0 |
| 20260502182610 | 21 | 180 | 0.0 | 0.0 | 0.00 | 0.00 | 0.00 | 5 | 985.0 |
| 20260502181610 | 21 | 202 | 0.0 | 0.0 | 0.00 | 0.00 | 0.00 | 5 | 984.9 |
| 20260502180610 | 22 | 180 | 0.0 | 0.0 | 0.00 | 0.00 | 0.00 | 5 | 984.9 |
| 20260502163610 | 26 | 135 | 3.2 | 4.8 | 0.00 | 0.00 | 0.00 | 5 | 985.7 |
| 20260502162609 | 26 | 157 | 4.8 | 6.4 | 0.00 | 0.00 | 0.00 | 5 | 985.7 |
| 20260502161609 | 26 | 180 | 3.2 | 6.4 | 0.00 | 0.00 | 0.00 | 5 | 985.9 |
| 20260502160609 | 26 | 225 | 1.6 | 4.8 | 0.00 | 0.00 | 0.00 | 5 | 985.9 |
| 20260502151614 | 27 | 247 | 4.8 | 6.4 | 0.00 | 0.00 | 0.00 | 5 | 986.8 |
| 20260502150614 | 27 | 112 | 4.8 | 11.3 | 0.00 | 0.00 | 0.00 | 5 | 986.8 |
| 20260502130613 | 29 | 135 | 4.8 | 6.4 | 0.00 | 0.00 | 0.00 | 5 | 988.6 |
| 20260502122613 | 29 | 67 | 1.6 | 0.0 | 0.00 | 0.00 | 0.00 | 5 | 988.9 |
| 20260502121612 | 29 | 292 | 3.2 | 4.8 | 0.00 | 0.00 | 0.00 | 5 | 988.9 |
| 20260502120612 | 28 | 112 | 3.2 | 6.4 | 0.00 | 0.00 | 0.00 | 5 | 988.9 |
| 20260502115612 | 28 | 180 | 3.2 | 4.8 | 0.00 | 0.00 | 0.00 | 11 | 989.1 |
| 20260502114612 | 28 | 22 | 3.2 | 0.0 | 0.00 | 0.00 | 0.00 | 11 | 989.1 |
| 20260502113612 | 28 | 135 | 3.2 | 0.0 | 0.00 | 0.00 | 0.00 | 11 | 989.4 |
| 20260502112612 | 28 | 135 | 3.2 | 4.8 | 0.00 | 0.00 | 0.00 | 11 | 989.4 |
| 20260502111612 | 27 | 157 | 3.2 | 8.0 | 0.00 | 0.00 | 0.00 | 12 | 989.7 |
| 20260502110612 | 27 | 202 | 3.2 | 14.5 | 0.00 | 0.00 | 0.00 | 12 | 989.7 |
| 20260502105612 | 27 | 157 | 3.2 | 12.9 | 0.00 | 0.00 | 0.00 | 12 | 989.6 |
| 20260502104612 | 27 | 180 | 3.2 | 3.2 | 0.00 | 0.00 | 0.00 | 12 | 989.6 |
| 20260502103612 | 27 | 112 | 1.6 | 11.3 | 0.00 | 0.00 | 0.00 | 12 | 989.6 |
| 20260502102612 | 26 | 157 | 1.6 | 0.0 | 0.00 | 0.00 | 0.00 | 12 | 989.6 |
| 20260502101611 | 26 | 202 | 3.2 | 4.8 | 0.00 | 0.00 | 0.00 | 12 | 989.7 |
| 20260502100611 | 27 | 225 | 0.0 | 6.4 | 0.00 | 0.00 | 0.00 | 14 | 989.7 |
| 20260502090611 | 24 | 135 | 1.6 | 0.0 | 0.00 | 0.00 | 0.00 | 20 | 990.2 |
| 20260502070610 | 15 | 337 | 0.0 | 0.0 | 0.00 | 0.00 | 0.00 | 35 | 990.4 |
| 20260502065610 | 13 | 22 | 0.0 | 0.0 | 0.00 | 0.00 | 0.00 | 35 | 990.2 |
| 20260502064610 | 12 | 22 | 0.0 | 0.0 | 0.00 | 0.00 | 0.00 | 37 | 990.2 |
| 20260502063610 | 12 | 67 | 0.0 | 0.0 | 0.00 | 0.00 | 0.00 | 36 | 990.2 |
| 20260502062609 | 12 | 135 | 0.0 | 0.0 | 0.00 | 0.00 | 0.00 | 36 | 990.2 |
| 20260502061610 | 10 | 67 | 0.0 | 0.0 | 0.00 | 0.00 | 0.00 | 36 | 990.4 |
| 20260502060609 | 9 | 292 | 0.0 | 0.0 | 0.00 | 0.00 | 0.00 | 35 | 990.4 |
| 20260502055610 | 9 | 292 | 0.0 | 0.0 | 0.00 | 0.00 | 0.00 | 35 | 990.2 |
| 20260502054609 | 8 | 360 | 0.0 | 0.0 | 0.00 | 0.00 | 0.00 | 34 | 990.2 |
| 20260502053609 | 7 | 270 | 0.0 | 0.0 | 0.00 | 0.00 | 0.00 | 34 | 990.4 |
| 20260502052614 | 7 | 270 | 0.0 | 0.0 | 0.00 | 0.00 | 0.00 | 33 | 990.4 |
| 20260502051614 | 7 | 270 | 0.0 | 0.0 | 0.00 | 0.00 | 0.00 | 33 | 990.2 |
| 20260502050614 | 7 | 270 | 0.0 | 0.0 | 0.00 | 0.00 | 0.00 | 32 | 990.2 |
| 20260502045614 | 6 | 180 | 0.0 | 0.0 | 0.00 | 0.00 | 0.00 | 32 | 990.1 |
| 20260502044614 | 6 | 225 | 0.0 | 0.0 | 0.00 | 0.00 | 0.00 | 32 | 990.1 |
| 20260502043614 | 6 | 292 | 0.0 | 0.0 | 0.00 | 0.00 | 0.00 | 32 | 989.9 |
| 20260502042614 | 6 | 337 | 0.0 | 0.0 | 0.00 | 0.00 | 0.00 | 31 | 989.9 |
| 20260502041613 | 5 | 337 | 0.0 | 0.0 | 0.00 | 0.00 | 0.00 | 30 | 989.9 |
| 20260502040613 | 5 | 337 | 0.0 | 0.0 | 0.00 | 0.00 | 0.00 | 30 | 989.9 |
| 20260502035613 | 5 | 337 | 0.0 | 0.0 | 0.00 | 0.00 | 0.00 | 30 | 989.9 |
| 20260502034613 | 5 | 337 | 0.0 | 0.0 | 0.00 | 0.00 | 0.00 | 30 | 989.9 |
| 20260502033613 | 5 | 180 | 0.0 | 0.0 | 0.00 | 0.00 | 0.00 | 30 | 990.1 |
| 20260502032613 | 5 | 180 | 0.0 | 0.0 | 0.00 | 0.00 | 0.00 | 30 | 990.1 |
| 20260502031613 | 5 | 270 | 0.0 | 0.0 | 0.00 | 0.00 | 0.00 | 27 | 990.0 |
| 20260502030613 | 5 | 202 | 0.0 | 0.0 | 0.00 | 0.00 | 0.00 | 27 | 990.0 |
| 20260502025613 | 5 | 225 | 0.0 | 0.0 | 0.00 | 0.00 | 0.00 | 27 | 990.1 |
| 20260502024612 | 5 | 247 | 0.0 | 0.0 | 0.00 | 0.00 | 0.00 | 25 | 990.1 |
| 20260502023612 | 6 | 247 | 0.0 | 0.0 | 0.00 | 0.00 | 0.00 | 25 | 990.0 |
| 20260502022612 | 6 | 270 | 0.0 | 0.0 | 0.00 | 0.00 | 0.00 | 23 | 990.0 |
| 20260502021612 | 6 | 247 | 0.0 | 0.0 | 0.00 | 0.00 | 0.00 | 23 | 989.9 |
| 20260502020612 | 5 | 225 | 0.0 | 0.0 | 0.00 | 0.00 | 0.00 | 23 | 989.9 |
| 20260502015612 | 6 | 247 | 0.0 | 0.0 | 0.00 | 0.00 | 0.00 | 24 | 990.0 |
| 20260502014612 | 6 | 247 | 0.0 | 0.0 | 0.00 | 0.00 | 0.00 | 24 | 990.0 |